Home > Weather > Warren > Past weeks

Flag for USA Weather for the Past 2 Weeks in Warren, Michigan, USA

Now
48 °F

Fog.


Feels Like: 44 °F
Forecast: 46 / 56 °F
Wind: 9 mph from Northeast

Location: Detroit City Airport

Current Time: May 1, 2016 at 4:58:07 AM

Latest Report: May 1, 2016 at 3:53 AM


Visibility: 6 mi

Pressure: 29.92 "Hg

Humidity: 93%

Dew Point: 46 °F

Location of WarrenLocation

Historic Weather in Warren — Graph

°F

Warren Temperature Yesterday

Maximum temperature yesterday: 53 °F (at 12:53 PM)
Minimum temperature yesterday: 40 °F (at 4:53 AM)
Average temperature yesterday: 47 °F

High & Low Weather Summary for the Past Weeks

 TemperatureHumidityPressure
High78 °F (Apr 18, 3:53 PM)97% (Apr 22, 6:53 AM)30.47 "Hg (Apr 22, 6:53 AM)
Low36 °F (Apr 24, 5:53 AM)21% (Apr 17, 2:53 PM)29.65 "Hg (Apr 26, 1:53 AM)
Average52 °F58%30.10 "Hg
* Reported Apr 16 2:53 AM — May 1 2:53 AM, Warren, Weather by CustomWeather, © 2016

Note: Actual official high and low records may vary slightly from our data, if they occured in-between our weather recording intervals... More about our weather records

Advertising

Warren Weather History for the Previous 24 Hours

Scroll right to see more
 ConditionsComfort  
Time TempWeatherWind HumidityBarometerVisibility
2:53 AM
Sun, May 1
47 °FLow clouds.10 mph93%29.94 "Hg9 mi
1:53 AM47 °FLight rain. Fog.12 mph93%29.95 "Hg6 mi
12:53 AM48 °FRain. Fog.10 mph93%29.98 "Hg4 mi
11:53 PM
Sat, Apr 30
48 °FRain. Fog.13 mph93%29.98 "Hg4 mi
10:53 PM47 °FLight rain. Fog.12 mph97%30.00 "Hg3 mi
9:53 PM48 °FLight rain. Fog.9 mph93%30.02 "Hg5 mi
8:53 PM48 °FLight rain. Fog.10 mph89%30.04 "Hg6 mi
7:53 PM48 °FLight rain. Fog.9 mph89%30.06 "Hg6 mi
6:53 PM49 °FLight rain. Fog.9 mph86%30.07 "Hg5 mi
5:53 PM49 °FLight rain. Fog.7 mph86%30.07 "Hg5 mi
4:53 PM49 °FLight rain. Overcast.9 mph84%30.09 "Hg5 mi
3:53 PM51 °FScattered clouds.10 mph74%30.10 "Hg10 mi
2:53 PM52 °FSunny.10 mph69%30.11 "Hg10 mi
1:53 PM53 °FSunny.13 mph61%30.13 "Hg10 mi
12:53 PM53 °FSunny.13 mph59%30.14 "Hg10 mi
11:53 AM52 °FSunny.10 mph57%30.15 "Hg10 mi
10:53 AM50 °FSunny.12 mph59%30.16 "Hg10 mi
9:53 AM49 °FSunny.10 mph57%30.16 "Hg10 mi
8:53 AM47 °FSunny.10 mph64%30.17 "Hg10 mi
7:53 AM43 °FSunny.6 mph71%30.18 "Hg10 mi
6:53 AM40 °FClear.5 mph68%30.16 "Hg10 mi
5:53 AM40 °FClear.3 mph68%30.15 "Hg10 mi
4:53 AM40 °FClear.3 mph73%30.15 "Hg10 mi
Weather by CustomWeather, © 2016

See weather overviewHow to use our weather pages